Regional Weather Roundup
Issued by NWS

Home | Current Version | Previous Version | Text Only | Print | Product List | Glossary Off
Versions: 1 2 3 4 5 6 7 8 9 10 11 12 13 14 15 16 17 18 19 20 21 22 23 24 25 26 27 28 29 30 31 32 33 34 35 36 37 38 39 40 41 42 43 44 45 46 47 48 49 50

521
ASUS43 KDTX 291401
RWRMI
MICHIGAN HOURLY REGIONAL WEATHER ROUNDUP
NATIONAL WEATHER SERVICE DETROIT/PONTIAC MI
1000 AM EDT THU JUN 29 2017

NOTE: "FAIR" INDICATES FEW OR NO CLOUDS BELOW 12,000 FEET WITH NO
SIGNIFICANT WEATHER AND/OR OBSTRUCTION TO VISIBILITY.

MIZ047>049-052>055-059>063-066>070-074>076-081>083-291500-
SOUTHEAST LOWER MICHIGAN

CITY           SKY/WX    TMP DP  RH WIND       PRES   REMARKS
ADRIAN         CLOUDY    75  62  64 SW14      29.87R
ALMA           CLOUDY    72  65  79 SW12G21   29.75F
ANN ARBOR      MOSUNNY   71  61  70 S10       29.84S
BAD AXE        CLOUDY    69  62  79 S10       29.78S
CARO           CLOUDY    72  64  76 SW10G17   29.77S
DETROIT CITY   MOSUNNY   75  61  61 SW17G23   29.84R
DETROIT        CLOUDY    75  61  61 SW20G29   29.84S
FLINT          CLOUDY    73  61  65 SW10      29.79F
GROSSE ILE     CLOUDY    75  62  62 SW14G21   29.85R
HILLSDALE      CLOUDY    72  61  68 SW13G21   29.86S
HOWELL         CLOUDY    71  60  67 SW9G16    29.82F

CITY           SKY/WX    TMP DP  RH WIND       PRES   REMARKS
JACKSON        CLOUDY    74  63  68 SW14G23   29.83F
LAMBERTVILLE   CLOUDY    77  62  59 SW12G23   29.87S
LANSING        CLOUDY    73  62  68 SW15G23   29.80S
LAPEER         FAIR      73  60  63 SW12G21   29.80F
MASON          CLOUDY    72  64  74 SW6       29.82R
MONROE         CLOUDY    76  62  60 SW16G24   29.85R
MT. CLEMENS    LGT RAIN  74  61  64 SW15      29.81R
PONTIAC        CLOUDY    71  60  68 SW12G20   29.81F
PORT HOPE        N/A     68  61  78 S8        29.75F
PORT HURON     CLOUDY    70  59  68 S6        29.83S
TRI CITIES     CLOUDY    73  66  78 SW16      29.75F
MIDLAND        FAIR      73  64  73 S10G16    29.74S
TROY           MOSUNNY   73  57  55 SW13G18   29.85S
SAGINAW HB     CLOUDY    72  61  68 SW12G18   29.76S
$$
MIZ043>046-050>051-056>058-064>065-071>073-077>080-291500-
SOUTHWEST LOWER MICHIGAN

CITY           SKY/WX    TMP DP  RH WIND       PRES   REMARKS
BATTLE CREEK   CLOUDY    76  65  68 SW15G23   29.81F
BENTON HARBOR  CLOUDY    78  63  59 SW17G24   29.79S
BIG RAPIDS     CLOUDY    69  64  83 SW10G18   29.72F
COLDWATER      PTSUNNY   74  64  69 SW9G17    29.84S
FREMONT        CLOUDY    71  65  81 SW10G16   29.73S
HOLLAND        CLOUDY    74  64  71 SW15      29.77R
GRAND RAPIDS   PTSUNNY   74  66  76 SW17G26   29.76S
IONIA          FAIR      72  64  74 SW16G25   29.77S
KALAMAZOO      MOSUNNY   77  63  61 SW14G22   29.81S
LUDINGTON      MOSUNNY   68  64  86 S14       29.69S
MARSHALL       CLOUDY    76  64  65 SW14G22   29.82S
MOUNT PLEASANT MOSUNNY   73  64  73 SW9G17    29.73S
MUSKEGON       CLOUDY    73  62  68 SW18G28   29.74R
SOUTH HAVEN    CLOUDY    77  65  65 SW16G29   29.78S
$$
MIZ016>042-291500-
NORTHERN LOWER MICHIGAN

CITY           SKY/WX    TMP DP  RH WIND       PRES   REMARKS
ALPENA         CLOUDY    68  66  93 S8        29.72F
BELLAIRE       CLOUDY    68  64  85 S6        29.68S
CADILLAC       CLOUDY    69  65  88 SW10      29.71S
CHARLEVOIX     CLOUDY    70  65  84 S10G18    29.69S
FRANKFORT      CLOUDY    68  62  80 S13G20    29.68R
GAYLORD        CLOUDY    68  62  81 SW13      29.70F
GRAYLING       CLOUDY    67  64  89 S7        29.72S
HARBOR SPRINGS CLOUDY    66  65  98 SW5       29.66F
HOUGHTON LAKE  CLOUDY    67  63  87 SW7       29.73F
MANISTEE       PTSUNNY   72  66  81 SW12G18   29.68R
OSCODA         CLOUDY    67  64  91 S9G18     29.73F
PELLSTON       CLOUDY    69  62  78 SW8       29.67S
ROGERS CITY    CLOUDY    67  64  89 S6        29.71S
TRAVERSE CITY  MOSUNNY   74  65  73 SW12G17   29.65F
$$
MIZ007>008-015-291500-
EASTERN UPPER MICHIGAN

CITY           SKY/WX    TMP DP  RH WIND       PRES   REMARKS
KINROSS        CLOUDY    61  60  97 E9        29.68S FOG
MACKINAC ISLAN CLOUDY    63  63 100 SE6       29.66F
NEWBERRY       FOG       60  60  97 S9        29.62F VSB 3/4
S. S. MARIE    LGT RAIN  61  60  97 E7        29.68S FOG
MUNISING         N/A     65  64  97 S8        29.58S
$$
MIZ004>006-011>014-085-291500-
CENTRAL UPPER MICHIGAN

CITY           SKY/WX    TMP DP  RH WIND       PRES   REMARKS
MANISTIQUE     FOG       57  54  89 S8        29.63R VSB 1/2
ESCANABA       PTSUNNY   67  64  90 S10       29.61R
MENOMINEE      PTSUNNY   71  64  78 SW10      29.62S
SAWYER-GWINN   CLOUDY    63  63 100 SW12      29.60R FOG
$$
MIZ001>003-009>011-084-291500-
WESTERN UPPER MICHIGAN

CITY           SKY/WX    TMP DP  RH WIND       PRES   REMARKS
IRON MOUNTAIN  CLOUDY    69  63  81 SW8       29.59R
HOUGHTON       LGT RAIN  59  57  93 W8        29.57R
COPPER HARBOR    N/A     53  52  96 SE7       29.56S
IRONWOOD       CLOUDY    56  56 100 W15       29.61S
$$

ABBREVIATIONS USED IN REMARKS
   TC - TEMPERATURE IN CELSIUS
  WCI - WIND CHILL INDEX
   HX - HEAT INDEX
  VSB - VISIBILITY





USA.gov is the U.S. government's official web portal to all federal, state and local government web resources and services.